Regional Weather Roundup
Issued by NWS

Home | Current Version | Previous Version | Graphics & Text | Print | Product List | Glossary On
Versions: 1 2 3 4 5 6 7 8 9 10 11 12 13 14 15 16 17 18 19 20 21 22 23 24 25 26 27
000
ASUS45 KBOU 182310
RWRCO

WEATHER ROUNDUP FOR COLORADO
NATIONAL WEATHER SERVICE DENVER/BOULDER CO
400 PM MST SAT NOV 18 2017

NOTE: "FAIR" INDICATES FEW OR NO CLOUDS BELOW 12000 FEET WITH NO
SIGNIFICANT WEATHER AND/OR OBSTRUCTIONS TO VISIBILITY.

COZ001>005-013-030-031-190000-
...NORTHWEST COLORADO...

CITY           SKY/WX    TMP DP  RH WIND       PRES   REMARKS
CRAIG          FAIR      29  18  63 SE3       30.38S
HAYDEN         FAIR      27  17  66 S5        30.38S WCI  22
MEEKER         FAIR      30  22  72 MISG      30.37R
RABBIT EARS PA FAIR      14  10  85 W10G21    30.27S WCI   1
STEAMBOAT SPGS FAIR      28  10  46 SE3       30.37R
WALDEN         FAIR      23   7  50 S12       30.30R WCI  12
$$

COZ006>008-011-190000-
...WEST CENTRAL VALLEYS...

CITY           SKY/WX    TMP DP  RH WIND       PRES   REMARKS
GRAND JUNCTION FAIR      43  13  29 CALM      30.39R
MONTROSE       FAIR      40  13  33 CALM      30.39S
EAGLE          FAIR      35  14  42 E3        30.38R
RIFLE          FAIR      38  14  37 W3        30.39R
DELTA          FAIR      44   9  24 CALM      30.39S
NUCLA          FAIR      45   7  21 NW5       30.38R
$$

COZ017>023-064>068-190000-
...SOUTHWEST COLORADO...

CITY           SKY/WX    TMP DP  RH WIND       PRES   REMARKS
DURANGO        FAIR      42  13  30 SW6       30.31R
CORTEZ         FAIR      46   5  18 NW10      30.32S
PAGOSA SPRINGS FAIR      43   8  23 SW3       30.31R
TELLURIDE      FAIR      34  13  41 W7        30.36R WCI  28
WOLF CREEK PAS FAIR      23  16  74 SW9G16    30.40R WCI  13
$$

COZ009-010-012-014-032>034-037-058>063-190000-
...CENTRAL COLORADO...

CITY           SKY/WX    TMP DP  RH WIND       PRES   REMARKS
ASPEN          FAIR      28  12  51 NW5       30.33R WCI  23
BUENA VISTA    FAIR      37  10  31 CALM      30.26R
COPPER MTN     FAIR      19   5  53 MISG      30.29S
BERTHOUD PASS  FAIR       7  -4  61 NW44G51   30.18R WCI -20
COTTONWOOD PAS FAIR      36  10  35 CALM      30.27R
GUNNISON       FAIR      31  14  49 CALM      30.35S
KREMMLING      FAIR      37  12  35 SW10      30.34S
LEADVILLE      FAIR      25   6  44 NW9G21    30.28R WCI  15
MONARCH PASS   FAIR      19  10  68 W36       30.39R WCI  -1
SALIDA         FAIR      41  13  32 N5        30.32S
SUNLIGHT       FAIR      19   7  58 MISG      30.37R
WILKERSON PASS FAIR      27   0  31 W7        30.29S WCI  19
$$

COZ069>075-190000-
...SAN LUIS VALLEY/SANGRE DE CRISTO MOUNTAINS...

CITY           SKY/WX    TMP DP  RH WIND       PRES   REMARKS
ALAMOSA        FAIR      39   5  24 CALM      30.29R
DEL NORTE      FAIR      37  13  36 SE6       30.30S
LA VETA PASS   FAIR      28   3  34 SW22G32     N/A  WCI  15
SAGUACHE       FAIR      39   5  24 NW8       30.30R
$$

COZ035-036-038>040-190000-
...NORTHERN COLORADO FRONT RANGE...

CITY           SKY/WX    TMP DP  RH WIND       PRES   REMARKS
DENVER INTL AP FAIR      41  22  46 SE8       30.18R
DMNS CITY PARK   N/A     48   2  15 NW8G16    30.18R
AURORA         PTCLDY    42  26  53 SE9       30.19R
FRONT RANGE AP CLEAR     45  21  39 SE8       30.20R
ERIE MUNI ARPT FAIR      49   9  19 NW3       30.22S
BOULDER MUN AP FAIR      46  12  25 W3        30.17S
CENTENNIAL     FAIR      46  12  25 NW5       30.18R
BROOMFIELD     CLEAR     46   5  18 MISG      30.19R
FORT COLLINS   FAIR      46  13  26 S5        30.19R
LONGMONT       FAIR      48  18  30 E8        30.20R
$$

COZ041-046-047-076>085-087-088-190000-
...PIKES PEAK/PALMER DIVIDE AND SOUTHERN FOOTHILLS...

CITY           SKY/WX    TMP DP  RH WIND       PRES   REMARKS
COLO. SPRINGS  FAIR      42  12  29 S12       30.23R
A. F. ACADEMY  FAIR      40  11  29 S10       30.21R
SCHRIEVER AFB  FAIR      39   9  29 S9        30.23R
CHEYENNE MTN   FAIR      35  11  36 S10       30.16R WCI  28
ELLICOTT       NOT AVBL
FALCON         FAIR      39   8  26 SW10      30.23R
FORT CARSON    FAIR      43  11  27 S13       30.21R
LIMON          FAIR      40  13  33 S6        30.23R
MONUMENT HILL  FAIR      36  21  55 SW7       30.21S
CANON CITY     FAIR      48  19  32 E10       30.21R
WALSENBURG     FAIR      45  30  57 E6        30.21R
TRINIDAD       FAIR      41  22  46 SE8       30.23F
$$

COZ042>045-048>051-090-091-190000-
...NORTHEAST COLORADO...

CITY           SKY/WX    TMP DP  RH WIND       PRES   REMARKS
GREELEY ARPT   FAIR      46  15  28 SE8       30.20R
AKRON          FAIR      42  13  30 N7        30.20R
BURLINGTON     FAIR      44  14  29 N9        30.23R
WRAY           NOT AVBL
YUMA           FAIR      41  16  36 N10       30.21R
STERLING       FAIR      45  18  33 N17       30.19R
HOLYOKE        FAIR      45  14  29 NW12      30.20R
FORT MORGAN    FAIR      45   7  21 SW6       30.21S
$$

COZ086-089-092>099-190000-
...SOUTHEAST COLORADO...

CITY           SKY/WX    TMP DP  RH WIND       PRES   REMARKS
PUEBLO         FAIR      47  20  34 S13       30.22R
LA JUNTA       FAIR      48  14  25 CALM      30.24R
LAMAR          FAIR      49  12  22 NW6       30.24R
SPRINGFIELD      N/A     44  15  31 NW5       30.26R
$$




USA.gov is the U.S. government's official web portal to all federal, state and local government web resources and services.